FW0441 Weather Reports


time (UTC)temp
F
wind
direction
speed
knots
gust
knots
rain 1hr
in
rain 24hr
in
rain mn
in
humidity
%
barometer
mb
20240518204550 80 279 2.6 6.1 0.00 0.23 0.10 44 1006.4
20240518203817 80 236 2.6 6.1 0.00 0.23 0.10 46 1006.3
20240518203317 80 355 2.6 5.2 0.00 0.23 0.10 46 1006.2
20240518202819 80 355 1.7 7.0 0.00 0.23 0.10 48 1006.0
20240518202318 81 327 0.9 7.0 0.00 0.23 0.10 48 1006.1
20240518201818 81 266 1.7 4.3 0.00 0.23 0.10 50 1006.1
20240518201317 80 238 1.7 4.3 0.00 0.23 0.10 48 1006.0
20240518200817 80 335 1.7 4.3 0.00 0.23 0.10 48 1006.1
20240518200313 80 59 1.7 4.3 0.00 0.23 0.10 49 1006.1
20240518195814 80 9 1.7 4.3 0.00 0.23 0.10 48 1006.1
20240518195543 80 153 1.7 4.3 0.00 0.23 0.10 50 1006.0
20240518194813 80 0 1.7 5.2 0.00 0.23 0.10 52 1005.8
20240518194310 80 321 1.7 6.1 0.00 0.23 0.10 50 1006.0
20240518194039 81 227 1.7 6.1 0.00 0.23 0.10 49 1005.6
20240518193309 81 195 1.7 5.2 0.00 0.23 0.10 49 1005.7
20240518192808 81 244 1.7 7.8 0.00 0.23 0.10 50 1005.6
20240518192539 80 221 1.7 7.8 0.00 0.23 0.10 53 1005.5
20240518192039 80 53 1.7 5.2 0.00 0.23 0.10 52 1005.4
20240518191310 81 35 1.7 7.0 0.00 0.23 0.10 55 1005.3
20240518191040 81 26 1.7 7.0 0.00 0.23 0.10 51 1005.2
20240518190305 81 171 1.7 7.0 0.00 0.23 0.10 51 1005.1
20240518185805 80 193 1.7 7.0 0.00 0.23 0.10 51 1005.1
20240518185307 80 279 1.7 3.5 0.00 0.23 0.10 54 1005.1
20240518184805 80 222 1.7 5.2 0.00 0.23 0.10 53 1005.2
20240518184536 80 205 1.7 5.2 0.00 0.23 0.10 54 1005.1
20240518183805 79 209 1.7 7.8 0.00 0.23 0.10 56 1005.0
20240518183305 79 181 2.6 7.8 0.00 0.23 0.10 54 1004.9
20240518182806 79 188 2.6 7.8 0.00 0.23 0.10 53 1004.9
20240518182535 79 232 1.7 5.2 0.00 0.23 0.10 55 1004.6
20240518181803 79 237 0.9 2.6 0.00 0.23 0.10 56 1004.6
20240518181305 79 210 1.7 6.1 0.00 0.23 0.10 59 1004.6
20240518180804 80 209 2.6 6.1 0.00 0.23 0.10 55 1004.4
20240518180537 80 207 1.7 6.1 0.00 0.23 0.10 59 1004.3
20240518175803 79 242 2.6 6.1 0.00 0.23 0.10 56 1004.3
20240518175304 79 271 2.6 7.0 0.00 0.23 0.10 60 1004.4
20240518175037 79 190 0.9 7.0 0.00 0.23 0.10 56 1004.5
20240518174303 79 229 0.9 4.3 0.00 0.23 0.10 59 1004.4
20240518173803 78 283 0.9 3.5 0.00 0.23 0.10 61 1004.3
20240518173302 79 205 0.9 2.6 0.00 0.23 0.10 58 1004.3
20240518172803 79 206 1.7 5.2 0.00 0.23 0.10 61 1004.3
20240518172301 79 205 2.6 7.8 0.00 0.23 0.10 60 1004.3
20240518171802 79 209 2.6 7.8 0.00 0.23 0.10 57 1004.1
20240518171302 79 196 1.7 6.1 0.00 0.23 0.10 60 1004.1
20240518171032 78 211 2.6 6.1 0.00 0.23 0.10 59 1003.9
20240518170302 78 217 2.6 6.1 0.00 0.23 0.10 59 1004.1
20240518165802 78 206 2.6 9.6 0.00 0.23 0.10 60 1004.0
20240518165305 78 205 1.7 4.3 0.00 0.23 0.10 61 1003.9
20240518165259 78 209 2.6 9.6 0.00 0.23 0.10 60 1004.1
20240518164259 78 207 1.7 4.3 0.00 0.23 0.10 61 1003.9
20240518163800 77 215 1.7 7.0 0.00 0.23 0.10 61 1003.8
20240518163529 77 182 1.7 7.0 0.00 0.23 0.10 58 1003.9
20240518162759 77 178 1.7 5.2 0.00 0.23 0.10 61 1003.7
20240518162257 77 270 2.6 6.1 0.00 0.23 0.10 61 1003.7
20240518161757 76 209 3.5 8.7 0.00 0.23 0.10 61 1003.6
20240518161528 76 185 3.5 8.7 0.00 0.23 0.10 62 1003.5
20240518160758 76 217 2.6 8.7 0.00 0.23 0.10 61 1003.7
20240518160257 76 221 2.6 7.0 0.00 0.23 0.10 62 1003.4
20240518155757 76 211 3.5 7.0 0.00 0.23 0.10 63 1003.5
20240518155257 76 202 3.5 9.6 0.00 0.23 0.10 61 1003.4
20240518154757 76 220 2.6 9.6 0.00 0.23 0.10 61 1003.3
20240518154259 76 235 2.6 7.8 0.00 0.23 0.10 64 1003.2
20240518153757 75 196 2.6 8.7 0.00 0.23 0.10 63 1003.2
20240518153530 75 221 2.6 8.7 0.00 0.23 0.10 64 1003.0
20240518152757 75 196 1.7 7.0 0.00 0.23 0.10 66 1003.0
20240518152254 74 209 1.7 6.1 0.00 0.23 0.10 68 1003.1
20240518151754 74 199 2.6 6.1 0.00 0.23 0.10 65 1003.0
20240518151256 74 187 2.6 6.1 0.00 0.23 0.10 66 1002.9
20240518150754 74 192 2.6 6.1 0.00 0.23 0.10 66 1002.8
20240518150254 74 207 1.7 7.0 0.00 0.23 0.10 66 1002.8
20240518145753 74 221 2.6 7.8 0.00 0.23 0.10 67 1002.9
20240518145252 74 191 2.6 7.8 0.00 0.23 0.10 65 1003.0
20240518144753 74 161 2.6 7.0 0.00 0.23 0.10 67 1003.0
20240518144254 73 195 2.6 7.0 0.00 0.23 0.10 67 1002.9
20240518143752 73 239 2.6 5.2 0.00 0.23 0.10 68 1002.9
20240518143251 73 196 2.6 7.8 0.00 0.23 0.10 68 1003.0
20240518142749 72 196 2.6 7.8 0.00 0.23 0.10 68 1002.9
20240518142250 72 197 2.6 7.0 0.00 0.23 0.10 70 1002.9
20240518141750 71 204 2.6 6.1 0.00 0.23 0.10 69 1003.0
20240518141251 71 204 1.7 5.2 0.00 0.23 0.10 70 1003.0
20240518140749 71 190 1.7 6.1 0.00 0.23 0.10 70 1003.0
20240518140521 71 231 1.7 6.1 0.00 0.23 0.10 71 1003.0
20240518135750 71 251 1.7 7.0 0.00 0.23 0.10 72 1002.9
20240518135522 70 211 1.7 7.0 0.00 0.23 0.10 72 1002.8
20240518134750 70 197 1.7 5.2 0.00 0.23 0.10 74 1002.9
20240518134249 69 194 1.7 6.1 0.00 0.23 0.10 75 1003.0
20240518133749 68 192 1.7 6.1 0.00 0.23 0.10 76 1003.1
20240518133251 68 204 1.7 6.1 0.00 0.23 0.10 77 1003.1
20240518132748 67 175 1.7 5.2 0.00 0.23 0.10 77 1003.1
20240518132250 67 192 1.7 5.2 0.00 0.23 0.10 78 1003.1
20240518131749 67 184 0.9 3.5 0.00 0.23 0.10 79 1003.0
20240518131249 67 180 0.9 3.5 0.00 0.23 0.10 79 1003.1
20240518130750 67 172 1.7 7.8 0.00 0.23 0.10 79 1003.4
20240518130250 67 168 1.7 7.8 0.00 0.23 0.10 79 1003.3
20240518125748 67 167 1.7 4.3 0.00 0.23 0.10 79 1003.3
20240518125251 66 186 1.7 4.3 0.00 0.23 0.10 81 1003.1
20240518124750 66 186 1.7 7.0 0.00 0.23 0.10 81 1003.2
20240518124246 66 184 1.7 7.0 0.00 0.23 0.10 81 1003.2
20240518123748 65 161 1.7 5.2 0.00 0.23 0.10 82 1003.2
20240518123246 65 173 1.7 4.3 0.00 0.23 0.10 82 1003.1
20240518123017 65 148 1.7 4.3 0.00 0.23 0.10 83 1003.0
20240518122245 64 170 1.7 5.2 0.00 0.23 0.10 83 1003.0
20240518121743 64 173 1.7 5.2 0.00 0.23 0.10 84 1003.0
20240518121244 64 157 1.7 4.3 0.00 0.23 0.10 84 1003.1
20240518120744 63 158 0.9 4.3 0.00 0.23 0.10 85 1003.2
20240518120242 63 163 0.9 5.2 0.00 0.23 0.10 85 1003.1
20240518115740 63 153 1.7 5.2 0.00 0.23 0.10 85 1003.1
20240518115240 63 170 1.7 5.2 0.01 0.23 0.10 85 1003.0
20240518114740 63 168 1.7 5.2 0.07 0.23 0.10 85 1003.0
20240518114239 63 207 1.7 4.3 0.08 0.23 0.10 85 1002.9
20240518113739 63 178 1.7 4.3 0.09 0.23 0.10 85 1003.0
20240518113509 63 173 1.7 6.1 0.09 0.23 0.10 85 1002.7
20240518112738 63 175 2.6 6.1 0.09 0.23 0.10 85 1002.5
20240518112238 63 169 2.6 6.1 0.09 0.23 0.10 85 1002.4
20240518111740 63 171 3.5 7.0 0.09 0.23 0.10 85 1002.3
20240518111236 63 175 3.5 7.0 0.09 0.23 0.10 85 1002.4
20240518111008 63 185 3.5 7.0 0.09 0.23 0.10 85 1002.5
20240518110237 63 168 3.5 7.8 0.09 0.23 0.10 85 1002.5
20240518110009 63 144 4.3 10.4 0.09 0.23 0.10 84 1002.7
20240518105236 64 131 4.3 10.4 0.08 0.22 0.10 83 1002.7
20240518105009 65 194 3.5 10.4 0.03 0.16 0.03 81 1003.1
20240518104236 65 192 2.6 10.4 0.02 0.15 0.02 78 1002.7
20240518104009 66 150 2.6 7.8 0.01 0.14 0.01 75 1002.4
20240518103236 67 189 3.5 7.8 0.01 0.14 0.01 72 1002.5
20240518102735 67 212 4.3 8.7 0.01 0.14 0.01 72 1002.8
20240518102237 67 207 4.3 12.2 0.01 0.14 0.01 72 1002.1
20240518101737 66 187 3.5 12.2 0.01 0.14 0.01 73 1002.0
20240518101236 66 163 3.5 11.3 0.01 0.14 0.01 74 1002.2
20240518100734 66 161 2.6 11.3 0.01 0.14 0.01 75 1002.1
20240518100235 66 184 2.6 7.8 0.01 0.14 0.01 75 1002.4
20240518095734 66 168 2.6 7.8 0.01 0.14 0.01 74 1002.4
20240518095235 67 180 2.6 6.1 0.01 0.14 0.01 73 1002.4
20240518094734 67 192 2.6 7.0 0.00 0.13 0.00 72 1002.2
20240518094234 68 155 2.6 7.0 0.00 0.13 0.00 70 1002.3
20240518093734 68 193 2.6 7.0 0.00 0.13 0.00 67 1002.3
20240518093235 68 161 2.6 9.6 0.00 0.13 0.00 67 1002.1
20240518092734 69 163 3.5 9.6 0.00 0.13 0.00 66 1002.2
20240518092234 69 186 3.5 7.8 0.00 0.13 0.00 66 1002.2
20240518091734 69 162 2.6 7.8 0.00 0.13 0.00 65 1002.2
20240518091233 69 114 2.6 6.1 0.00 0.13 0.00 64 1002.1
20240518090733 70 190 3.5 11.3 0.00 0.13 0.00 63 1002.1
20240518090232 70 180 3.5 11.3 0.00 0.13 0.00 62 1002.1
20240518085733 71 179 3.5 9.6 0.00 0.13 0.00 61 1002.1
20240518085238 71 186 3.5 13.0 0.00 0.13 0.00 59 1002.0
20240518085234 71 177 3.5 10.4 0.00 0.13 0.00 60 1002.0
20240518084233 71 188 3.5 13.0 0.00 0.13 0.00 60 1002.1
20240518083732 71 202 2.6 7.8 0.00 0.13 0.00 60 1002.2
20240518083230 71 188 2.6 7.8 0.00 0.13 0.00 61 1002.2
20240518083002 71 170 1.7 7.0 0.00 0.13 0.00 61 1002.1
20240518082503 71 205 2.6 6.1 0.00 0.13 0.00 61 1002.1
20240518081728 71 186 2.6 6.1 0.00 0.13 0.00 62 1002.2
20240518081228 71 209 2.6 6.1 0.00 0.13 0.00 63 1002.2
20240518080729 70 197 2.6 7.0 0.00 0.13 0.00 65 1002.1
20240518080229 69 166 2.6 7.0 0.00 0.13 0.00 67 1002.2
20240518075726 69 190 1.7 5.2 0.00 0.13 0.00 68 1002.2
20240518075457 69 168 1.7 4.3 0.00 0.13 0.00 68 1002.3
20240518074723 69 180 1.7 7.0 0.00 0.13 0.00 68 1002.3
20240518074224 69 165 1.7 7.0 0.00 0.13 0.00 67 1002.3
20240518073725 70 222 2.6 9.6 0.00 0.13 0.00 66 1002.4
20240518073225 70 224 3.5 9.6 0.00 0.13 0.00 65 1002.4
20240518072955 69 191 3.5 7.8 0.00 0.13 0.00 65 1002.3
20240518072224 69 188 2.6 7.8 0.00 0.13 0.00 67 1002.1
20240518071725 68 182 1.7 6.1 0.00 0.13 0.00 68 1002.1
20240518071223 68 201 2.6 7.0 0.00 0.13 0.00 69 1001.9
20240518070725 68 182 2.6 7.0 0.00 0.13 0.00 68 1002.0
20240518070222 67 184 2.6 7.0 0.00 0.13 0.00 70 1002.1
20240518065724 67 189 1.7 4.3 0.00 0.13 0.00 70 1002.2
20240518065220 67 207 1.7 5.2 0.00 0.13 0.00 71 1002.1
20240518064721 67 181 2.6 6.1 0.00 0.13 0.00 71 1002.2
20240518064220 67 200 2.6 6.1 0.00 0.13 0.00 71 1002.2
20240518063949 67 159 2.6 5.2 0.00 0.13 0.00 71 1002.2
20240518063449 68 167 2.6 7.8 0.00 0.13 0.00 70 1002.3
20240518062717 68 172 2.6 7.8 0.00 0.13 0.00 70 1002.2
20240518062216 68 120 2.6 7.0 0.00 0.13 0.00 69 1002.2
20240518061717 68 182 2.6 7.0 0.00 0.13 0.00 69 1002.1
20240518061213 68 179 2.6 7.0 0.00 0.13 0.00 69 1002.2
20240518060714 68 186 2.6 6.1 0.00 0.13 0.00 68 1002.3
20240518060447 69 186 2.6 6.1 0.00 0.13 0.00 68 1002.2
20240518055714 69 206 2.6 7.0 0.00 0.13 0.00 68 1002.2
20240518055215 69 183 2.6 7.8 0.00 0.13 0.00 67 1002.3
20240518054714 69 204 2.6 7.8 0.00 0.13 0.00 67 1002.3
20240518054213 69 167 3.5 12.2 0.00 0.13 0.00 66 1002.2
20240518053716 69 196 3.5 12.2 0.00 0.13 0.00 66 1002.3
20240518053214 69 151 3.5 8.7 0.00 0.13 0.00 67 1002.3
20240518052946 69 178 2.6 7.8 0.00 0.13 0.00 67 1002.3
20240518052211 69 188 2.6 7.8 0.00 0.13 0.00 67 1002.3
20240518051711 69 167 2.6 8.7 0.00 0.13 0.00 67 1002.3
20240518051443 69 183 2.6 8.7 0.00 0.13 0.00 68 1002.3
20240518050712 68 198 2.6 8.7 0.00 0.13 0.00 70 1002.3
20240518050213 68 219 2.6 6.1 0.00 0.13 0.00 72 1002.3
20240518045713 67 207 1.7 6.1 0.00 0.13 0.13 73 1002.2
20240518045211 67 209 1.7 6.1 0.00 0.13 0.13 74 1002.3
20240518044711 67 188 2.6 7.8 0.00 0.13 0.13 75 1002.3
20240518044210 67 181 2.6 7.8 0.00 0.13 0.13 76 1002.3
20240518043710 66 172 2.6 7.8 0.00 0.13 0.13 77 1002.4
20240518043209 66 214 2.6 7.8 0.00 0.13 0.13 79 1002.4
20240518042708 65 202 2.6 5.2 0.00 0.13 0.13 80 1002.5
20240518042210 65 182 2.6 6.1 0.00 0.13 0.13 80 1002.5
20240518041709 66 190 2.6 7.0 0.00 0.13 0.13 79 1002.4
20240518041213 68 180 2.6 9.6 0.00 0.13 0.13 74 1002.3
20240518041209 67 206 3.5 9.6 0.00 0.13 0.13 77 1002.3
20240518040208 68 181 1.7 8.7 0.00 0.13 0.13 72 1002.5
20240518035940 68 146 2.6 7.0 0.00 0.13 0.13 72 1002.6
20240518035208 67 162 2.6 7.0 0.00 0.13 0.13 72 1002.5
20240518034708 67 186 1.7 6.1 0.00 0.13 0.13 73 1002.7
20240518034211 67 182 2.6 6.1 0.00 0.13 0.13 73 1002.6
20240518033940 67 184 2.6 6.1 0.00 0.13 0.13 74 1002.6
20240518033439 67 161 2.6 6.1 0.00 0.13 0.13 75 1002.5
20240518032706 66 171 1.7 4.3 0.00 0.13 0.13 76 1002.6
20240518032206 66 183 1.7 4.3 0.00 0.13 0.13 77 1002.6
20240518031939 66 176 2.6 7.8 0.00 0.13 0.13 78 1002.7
20240518031207 66 157 2.6 7.8 0.00 0.13 0.13 78 1002.8
20240518030707 66 157 1.7 5.2 0.00 0.13 0.13 78 1002.8
20240518030208 66 170 2.6 6.1 0.00 0.13 0.13 79 1002.9
20240518025939 66 144 2.6 6.1 0.00 0.13 0.13 78 1003.0
20240518025208 66 179 2.6 6.1 0.00 0.13 0.13 78 1002.8
20240518024705 66 190 2.6 7.0 0.00 0.13 0.13 78 1002.8
20240518024205 66 191 2.6 10.4 0.00 0.13 0.13 77 1003.0
20240518023704 66 199 2.6 10.4 0.00 0.13 0.13 77 1003.1
20240518023204 66 190 2.6 7.8 0.00 0.13 0.13 78 1002.9
20240518022705 66 164 2.6 8.7 0.00 0.13 0.13 79 1003.0
20240518022205 66 205 2.6 8.7 0.00 0.13 0.13 79 1003.1
20240518021704 66 195 2.6 9.6 0.00 0.13 0.13 80 1003.1
20240518021204 66 200 2.6 9.6 0.00 0.13 0.13 80 1003.0
20240518020703 67 217 3.5 7.8 0.00 0.13 0.13 79 1002.8
20240518020204 67 202 4.3 10.4 0.00 0.13 0.13 78 1002.7
20240518015702 67 205 3.5 8.7 0.00 0.13 0.13 77 1002.6
20240518015203 67 186 3.5 7.0 0.00 0.13 0.13 76 1002.7
20240518014703 67 202 3.5 8.7 0.00 0.13 0.13 75 1002.8
20240518014203 67 220 3.5 8.7 0.01 0.13 0.13 76 1002.6
20240518013711 65 199 1.7 5.2 0.04 0.13 0.13 81 1002.9
20240518013702 67 258 2.6 7.0 0.02 0.13 0.13 77 1002.9
20240518013203 66 194 2.6 6.1 0.03 0.13 0.13 80 1002.9
20240518012433 65 204 1.7 5.2 0.04 0.13 0.13 81 1003.3
20240518011701 66 190 1.7 6.1 0.04 0.13 0.13 81 1003.5
20240518011203 66 144 2.6 10.4 0.05 0.13 0.13 81 1003.5
20240518010703 65 190 2.6 10.4 0.06 0.13 0.13 81 1003.8
20240518010201 65 200 2.6 7.8 0.06 0.13 0.13 82 1003.7
20240518005704 65 189 2.6 5.2 0.11 0.13 0.13 82 1003.7
20240518005200 65 198 3.5 7.8 0.12 0.13 0.13 81 1003.0
20240518004701 65 150 5.2 14.8 0.12 0.13 0.13 80 1002.7
20240518004157 64 200 6.1 16.5 0.11 0.12 0.12 80 1001.5
20240518003658 65 153 3.5 16.5 0.10 0.11 0.11 81 1001.2
20240518003159 65 190 1.7 7.8 0.09 0.10 0.10 82 1002.7
20240518002656 66 225 0.9 7.8 0.08 0.09 0.09 83 1003.5
20240518002157 66 286 0.9 2.6 0.08 0.09 0.09 83 1003.8
20240518001928 67 289 0.9 1.7 0.08 0.09 0.09 82 1003.8
20240518001154 67 289 0.9 2.6 0.07 0.08 0.08 78 1003.8
20240518000652 68 289 0.9 4.3 0.06 0.07 0.07 75 1003.9
20240518000153 70 297 1.7 6.1 0.06 0.07 0.07 71 1003.7
20240517235651 73 298 1.7 6.1 0.01 0.02 0.03 62 1003.6
20240517235151 76 240 0.9 5.2 0.00 0.01 0.01 53 1002.9
20240517234653 76 271 0.9 3.5 0.00 0.01 0.01 51 1002.4
20240517234542 78 223 1.7 5.2 0.00 0.01 0.01 46 1002.0
20240517234430 77 271 1.7 4.3 0.00 0.01 0.01 48 1002.1
20240517233152 79 292 0.9 5.2 0.00 0.01 0.01 43 1001.8
20240517232658 81 225 1.7 6.1 0.00 0.01 0.01 39 1001.5
20240517232653 80 253 1.7 5.2 0.00 0.01 0.01 42 1001.6
20240517231654 81 261 2.6 6.1 0.00 0.01 0.01 39 1001.3
20240517231153 81 217 2.6 8.7 0.00 0.01 0.01 38 1001.2
20240517230651 82 243 2.6 10.4 0.00 0.01 0.01 38 1001.2
20240517230153 82 203 2.6 10.4 0.00 0.01 0.01 38 1001.2
20240517225657 82 153 2.6 7.0 0.00 0.01 0.01 39 1000.9
20240517225652 82 209 2.6 7.0 0.00 0.01 0.01 38 1001.0
20240517224651 82 171 2.6 7.0 0.00 0.01 0.01 38 1000.7
20240517224153 82 166 2.6 7.0 0.00 0.01 0.01 37 1000.6
20240517223651 82 195 2.6 7.0 0.01 0.01 0.01 39 1000.6
20240517223152 82 173 2.6 9.6 0.01 0.01 0.01 40 1000.9
20240517222652 82 173 2.6 9.6 0.01 0.01 0.01 40 1000.7
20240517222425 83 224 1.7 5.2 0.01 0.01 0.01 41 1001.0
20240517221653 83 193 1.7 5.2 0.01 0.01 0.01 41 1001.2
20240517221152 83 242 1.7 5.2 0.01 0.01 0.01 42 1001.2
20240517220652 82 259 1.7 5.2 0.01 0.01 0.01 44 1001.1
20240517220151 81 163 0.9 4.3 0.01 0.01 0.01 48 1001.2
20240517215649 80 202 0.9 3.5 0.01 0.01 0.01 47 1001.2
20240517215150 81 202 1.7 3.5 0.01 0.01 0.01 47 1001.3
20240517214651 82 198 1.7 5.2 0.01 0.01 0.01 46 1001.4
20240517214151 83 203 2.6 7.8 0.01 0.01 0.01 48 1001.6
20240517213921 83 208 2.6 7.8 0.00 0.00 0.00 38 1001.6
20240517213149 83 224 1.7 8.7 0.00 0.00 0.00 38 1001.7
20240517212650 84 198 1.7 8.7 0.00 0.00 0.00 37 1001.7
20240517212152 84 221 1.7 5.2 0.00 0.00 0.00 40 1001.7
20240517211650 84 189 2.6 5.2 0.00 0.00 0.00 38 1001.7
20240517211149 84 197 3.5 7.8 0.00 0.00 0.00 38 1001.7
20240517210651 84 198 2.6 8.7 0.00 0.00 0.00 39 1001.7
20240517210149 84 220 2.6 8.7 0.00 0.00 0.00 39 1001.7
20240517205647 84 229 2.6 6.1 0.00 0.00 0.00 41 1001.7
20240517205148 84 234 2.6 6.1 0.00 0.00 0.00 39 1001.6